Weather History for KDED - December, 2013

Change the Weather History Date:

Tuesday, December 24, 2013

  Actual Average Record
Temperature  
Mean Temperature 60 °F -  
Max Temperature 71 °F 70 °F 82 °F (2014)
Min Temperature 48 °F 47 °F 46 °F (2012)
Degree Days  
Heating Degree Days 6    
Growing Degree Days 10 (Base 50)    
Moisture  
Dew Point 49 °F    
Average Humidity 70    
Maximum Humidity 100    
Minimum Humidity 27    
Precipitation  
Precipitation 0.22 in - - ()
Sea Level Pressure  
Sea Level Pressure 30.23 in    
Wind  
Wind Speed 7 mph (NNW)    
Max Wind Speed 18 mph    
Max Gust Speed 23 mph    
Visibility 10 miles    
Events      
Averages and records for this station are not official NWS values.
T = Trace of Precipitation, MM = Missing Value Source: NWS Daily Summary

Daily Weather History Graph

Daily Weather History Graph

Search for Another Location

Airport or City:

Trip Planner

Search our weather history database for the weather conditions in past years. The results will help you decide how hot, cold, wet, or windy it might be!

Date:

Astronomy

Dec. 24, 2013 Rise Set
Actual Time 7:16 AM EST 5:33 PM EST
Civil Twilight 6:50 AM EST 5:59 PM EST
Nautical Twilight 6:20 AM EST 6:29 PM EST
Astronomical Twilight 5:51 AM EST 6:58 PM EST
Moon No Moon Rise 11:38 AM EST (12/24)
Length of Visible Light 11h 09m
Length of Day
10h 17m
Waning Gibbous, 59% of the Moon is Illuminated
Dec 24
Waning Gibbous
Dec 25
Last Quarter
Jan 1
New
Jan 7
First Quarter
Jan 15
Full

Hourly Weather History & Observations

Time (EST) Temp. Dew Point Humidity Pressure Visibility Wind Dir Wind Speed Gust Speed Precip Events Conditions
12:15 AM 68.0 °F 66.2 °F 94% 30.13 in - SSW 3.5 mph - N/A   Unknown
12:35 AM 68.0 °F 68.0 °F 100% 30.13 in - Calm Calm - N/A   Unknown
12:55 AM 69.8 °F 68.0 °F 94% 30.13 in - SSW 4.6 mph - N/A   Unknown
1:15 AM 69.8 °F 68.0 °F 94% 30.12 in - SSW 5.8 mph - N/A   Unknown
1:35 AM 69.8 °F 68.0 °F 94% 30.12 in - South 6.9 mph - N/A   Unknown
1:55 AM 69.8 °F 68.0 °F 94% 30.12 in - SSW 4.6 mph - N/A   Unknown
2:15 AM 71.6 °F 69.8 °F 94% 30.12 in - South 4.6 mph - N/A   Unknown
2:35 AM 71.6 °F 69.8 °F 94% 30.11 in - South 5.8 mph - N/A   Mostly Cloudy
2:55 AM 71.6 °F 69.8 °F 94% 30.11 in - Calm Calm - N/A   Overcast
3:15 AM 71.6 °F 68.0 °F 88% 30.11 in - WNW 5.8 mph - N/A   Overcast
3:35 AM 69.8 °F 68.0 °F 94% 30.11 in - West 4.6 mph - 0.04 in   Unknown
3:55 AM 69.8 °F 68.0 °F 94% 30.12 in - WNW 4.6 mph - 0.08 in   Unknown
4:15 AM 69.8 °F 68.0 °F 94% 30.13 in - WNW 5.8 mph - 0.09 in   Overcast
4:35 AM 66.2 °F 64.4 °F 94% 30.14 in - NW 18.4 mph 23.0 mph 0.13 in   Overcast
4:55 AM 62.6 °F 62.6 °F 100% 30.15 in - NNW 13.8 mph - 0.13 in   Unknown
5:15 AM 62.6 °F 59.0 °F 88% 30.15 in - NNW 13.8 mph - N/A   Overcast
5:35 AM 60.8 °F 59.0 °F 94% 30.17 in - NW 12.7 mph 18.4 mph N/A   Overcast
5:55 AM 59.0 °F 57.2 °F 94% 30.18 in - NW 11.5 mph - N/A   Overcast
6:15 AM 59.0 °F 57.2 °F 94% 30.19 in - NNW 9.2 mph - N/A   Overcast
6:35 AM 59.0 °F 57.2 °F 94% 30.20 in - NW 6.9 mph - N/A   Unknown
6:55 AM 59.0 °F 57.2 °F 94% 30.20 in - NW 8.1 mph - 0.01 in   Unknown
7:15 AM 59.0 °F 57.2 °F 94% 30.21 in - NNW 8.1 mph - N/A   Mostly Cloudy
7:35 AM 57.2 °F 57.2 °F 100% 30.22 in - NW 8.1 mph - N/A   Unknown
7:55 AM 57.2 °F 57.2 °F 100% 30.24 in - NNW 8.1 mph - N/A   Unknown
8:15 AM 59.0 °F 57.2 °F 94% 30.24 in - NW 10.4 mph - N/A   Overcast
8:35 AM 59.0 °F 57.2 °F 94% 30.25 in - NW 10.4 mph - N/A   Overcast
8:55 AM 59.0 °F 57.2 °F 94% 30.25 in - NNW 8.1 mph - N/A   Unknown
9:15 AM 59.0 °F 57.2 °F 94% 30.26 in - NNW 8.1 mph - N/A   Unknown
9:35 AM 59.0 °F 55.4 °F 88% 30.26 in - NNW 9.2 mph - N/A   Unknown
9:55 AM 59.0 °F 55.4 °F 88% 30.26 in - North 10.4 mph - N/A   Unknown
10:15 AM 59.0 °F 53.6 °F 82% 30.27 in - North 10.4 mph - N/A   Mostly Cloudy
10:35 AM 59.0 °F 51.8 °F 77% 30.27 in - NNW 11.5 mph - N/A   Clear
10:55 AM 60.8 °F 51.8 °F 72% 30.27 in - NNW 10.4 mph - N/A   Partly Cloudy
11:15 AM 62.6 °F 48.2 °F 59% 30.27 in - NNW 11.5 mph 16.1 mph N/A   Partly Cloudy
11:35 AM 60.8 °F 46.4 °F 59% 30.27 in - NNW 13.8 mph 17.3 mph N/A   Clear
11:55 AM 62.6 °F 42.8 °F 48% 30.26 in 10.0 mi NNW 12.7 mph 19.6 mph N/A   Clear
12:15 PM 62.6 °F 44.6 °F 52% 30.26 in 9.0 mi NW 13.8 mph - N/A   Clear
12:35 PM 62.6 °F 44.6 °F 52% 30.25 in - NNW 12.7 mph - N/A   Clear
12:55 PM 62.6 °F 39.2 °F 42% 30.24 in - North 13.8 mph - N/A   Clear
1:15 PM 62.6 °F 41.0 °F 45% 30.23 in - NW 10.4 mph 16.1 mph N/A   Clear
1:35 PM 64.4 °F 32.0 °F 30% 30.23 in - North 15.0 mph 19.6 mph N/A   Clear
1:55 PM 64.4 °F 35.6 °F 34% 30.23 in - NNW 12.7 mph - N/A   Clear
2:15 PM 64.4 °F 37.4 °F 37% 30.23 in - North 13.8 mph 18.4 mph N/A   Clear
2:35 PM 64.4 °F 37.4 °F 37% 30.23 in - NNW 10.4 mph - N/A   Clear
2:55 PM 64.4 °F 37.4 °F 37% 30.23 in - NNW 9.2 mph - N/A   Clear
3:15 PM 64.4 °F 33.8 °F 32% 30.23 in - NNE 11.5 mph - N/A   Clear
3:35 PM 62.6 °F 28.4 °F 27% 30.23 in 10.0 mi NNE 11.5 mph - N/A   Clear
3:55 PM 62.6 °F 28.4 °F 27% 30.24 in 10.0 mi NE 11.5 mph - N/A   Clear
4:15 PM 60.8 °F 32.0 °F 34% 30.24 in 10.0 mi NE 10.4 mph - N/A   Clear
4:35 PM 59.0 °F 33.8 °F 39% 30.25 in 10.0 mi NNE 8.1 mph - N/A   Clear
4:55 PM 59.0 °F 37.4 °F 45% 30.25 in 10.0 mi NNE 6.9 mph - N/A   Clear
5:15 PM 57.2 °F 37.4 °F 48% 30.25 in 10.0 mi NNE 6.9 mph - N/A   Clear
5:35 PM 55.4 °F 39.2 °F 54% 30.26 in 10.0 mi NNE 4.6 mph - N/A   Clear
5:55 PM 55.4 °F 39.2 °F 54% 30.27 in 10.0 mi NNE 5.8 mph - N/A   Clear
6:15 PM 53.6 °F 39.2 °F 58% 30.27 in 10.0 mi NNE 6.9 mph - N/A   Clear
6:35 PM 53.6 °F 39.2 °F 58% 30.27 in 10.0 mi NNE 5.8 mph - N/A   Clear
6:55 PM 53.6 °F 39.2 °F 58% 30.27 in 10.0 mi NNE 6.9 mph - N/A   Clear
7:15 PM 53.6 °F 39.2 °F 58% 30.28 in 10.0 mi North 6.9 mph - N/A   Clear
7:35 PM 51.8 °F 39.2 °F 62% 30.29 in 9.0 mi North 5.8 mph - N/A   Clear
7:55 PM 51.8 °F 39.2 °F 62% 30.29 in 10.0 mi North 5.8 mph - N/A   Clear
8:15 PM 50.0 °F 39.2 °F 66% 30.29 in 10.0 mi North 6.9 mph - N/A   Clear
8:35 PM 50.0 °F 39.2 °F 66% 30.30 in 10.0 mi North 8.1 mph - N/A   Clear
8:55 PM 50.0 °F 39.2 °F 66% 30.30 in 10.0 mi North 6.9 mph - N/A   Clear
9:15 PM 50.0 °F 39.2 °F 66% 30.30 in 10.0 mi North 5.8 mph - N/A   Clear
9:35 PM 51.8 °F 39.2 °F 62% 30.30 in 10.0 mi NNE 6.9 mph - N/A   Clear
9:55 PM 50.0 °F 39.2 °F 66% 30.30 in 10.0 mi North 6.9 mph - N/A   Unknown
10:15 PM 50.0 °F 39.2 °F 66% 30.30 in 10.0 mi North 6.9 mph - N/A   Clear
10:35 PM 48.2 °F 37.4 °F 66% 30.30 in 10.0 mi North 5.8 mph - N/A   Clear
10:55 PM 48.2 °F 35.6 °F 62% 30.30 in 10.0 mi NNW 8.1 mph - N/A   Clear
11:15 PM 48.2 °F 35.6 °F 62% 30.30 in 10.0 mi NNW 8.1 mph - N/A   Clear
11:35 PM 48.2 °F 35.6 °F 62% 30.29 in 10.0 mi NNW 8.1 mph - N/A   Clear
11:55 PM 48.2 °F 35.6 °F 62% 30.29 in 10.0 mi NNW 6.9 mph - N/A   Clear